Home > Weather > Magdeburg > Past weeks

Flag for Germany Weather for the Past 2 Weeks in Magdeburg, Saxony-Anhalt, Germany

Now
48 °F

Clear.


Feels Like: 44 °F
Forecast: 51 / 71 °F
Wind: 9 mph from Southeast

Location: Leipzig-Schkeuditz

Current Time: May 7, 2016 at 2:48:16 AM

Latest Report: May 7, 2016 at 2:20 AM


Visibility: 10 mi

Pressure: 30.01 "Hg

Humidity: 82%

Dew Point: 43 °F

Location of MagdeburgLocation

Historic Weather in Magdeburg — Graph

°F

Magdeburg Temperature Yesterday

Maximum temperature yesterday: 73 °F (at 3:20 PM)
Minimum temperature yesterday: 45 °F (at 4:20 AM)
Average temperature yesterday: 60 °F

High & Low Weather Summary for the Past Weeks

 TemperatureHumidityPressure
High73 °F (May 6, 3:20 PM)100% (Apr 25, 3:20 AM)30.39 "Hg (Apr 25, 3:20 AM)
Low28 °F (Apr 25, 2:20 AM)31% (May 6, 5:20 PM)29.47 "Hg (Apr 26, 3:20 AM)
Average48 °F68%29.99 "Hg
* Reported Apr 22 1:20 AM — May 7 1:20 AM, Magdeburg, Weather by CustomWeather, © 2016

Note: Actual official high and low records may vary slightly from our data, if they occured in-between our weather recording intervals... More about our weather records

Advertising

Magdeburg Weather History for the Previous 24 Hours

Scroll right to see more
 ConditionsComfort  
Time TempWeatherWind HumidityBarometerVisibility
1:20 AM
Sat, May 7
52 °FClear.9 mph77%30.01 "Hg10 mi
12:50 AM54 °FClear.9 mph72%30.01 "Hg10 mi
12:20 AM50 °FClear.10 mph82%30.01 "Hg10 mi
11:50 PM
Fri, May 6
52 °FClear.10 mph77%30.01 "Hg10 mi
11:20 PM52 °FClear.13 mph77%30.01 "Hg10 mi
10:50 PM55 °FClear.14 mph77%30.01 "Hg10 mi
10:20 PM55 °FClear.10 mph72%30.01 "Hg10 mi
9:50 PM55 °FClear.12 mph77%30.01 "Hg10 mi
9:20 PM57 °FSunny.10 mph72%30.01 "Hg10 mi
8:50 PM59 °FSunny.12 mph68%30.01 "Hg10 mi
8:20 PM63 °FSunny.9 mph59%30.01 "Hg10 mi
7:50 PM66 °FSunny.13 mph49%30.01 "Hg10 mi
7:20 PM70 °FSunny.15 mph35%30.01 "Hg10 mi
6:50 PM72 °FPassing clouds.14 mph31%30.01 "HgN/A
6:20 PM72 °FSunny.15 mph31%30.01 "Hg10 mi
5:50 PM73 °FSunny.16 mph31%30.01 "Hg10 mi
5:20 PM73 °FPassing clouds.14 mph31%30.04 "HgN/A
4:50 PM73 °FSunny.14 mph33%30.04 "Hg10 mi
4:20 PM73 °FPassing clouds.15 mph36%30.04 "HgN/A
3:50 PM73 °FPassing clouds.15 mph36%30.04 "HgN/A
3:20 PM73 °FPassing clouds.15 mph36%30.04 "HgN/A
2:50 PM72 °FPassing clouds.12 mph44%30.07 "HgN/A
2:20 PM72 °FPassing clouds.13 mph38%30.07 "HgN/A
1:50 PM70 °FPassing clouds.13 mph40%30.09 "HgN/A
1:20 PM70 °FPassing clouds.13 mph33%30.09 "HgN/A
12:50 PM70 °FPassing clouds.14 mph38%30.09 "HgN/A
12:20 PM68 °FPassing clouds.15 mph43%30.12 "HgN/A
11:50 AM68 °FSunny.14 mph40%30.12 "Hg10 mi
11:20 AM68 °FSunny.14 mph46%30.12 "Hg10 mi
10:50 AM66 °FSunny.14 mph46%30.12 "Hg10 mi
10:20 AM66 °FPassing clouds.10 mph52%30.12 "HgN/A
9:50 AM64 °FSunny.10 mph56%30.15 "Hg10 mi
9:20 AM63 °FSunny.9 mph59%30.15 "Hg10 mi
8:50 AM59 °FSunny.10 mph68%30.15 "Hg10 mi
8:20 AM57 °FPassing clouds.10 mph72%30.15 "HgN/A
7:50 AM54 °FPassing clouds.9 mph82%30.15 "HgN/A
7:20 AM50 °FSunny.8 mph88%30.15 "Hg10 mi
6:50 AM50 °FSunny.7 mph82%30.15 "Hg10 mi
6:20 AM46 °FClear.8 mph93%30.15 "Hg10 mi
5:50 AM50 °FClear.9 mph88%30.15 "Hg10 mi
5:20 AM45 °FClear.9 mph93%30.15 "Hg10 mi
4:50 AM45 °FClear.8 mph93%30.15 "Hg10 mi
4:20 AM45 °FClear.8 mph93%30.15 "Hg10 mi
3:50 AM46 °FClear.8 mph93%30.15 "Hg10 mi
3:20 AM48 °FClear.8 mph87%30.18 "Hg10 mi
2:50 AM50 °FClear.9 mph82%30.18 "Hg10 mi
2:20 AM48 °FClear.10 mph87%30.18 "Hg10 mi
Weather by CustomWeather, © 2016

See weather overviewHow to use our weather pages